Date String (YYYY-MM-DD hh:mm:ss) UTC,Instrument flags,Ambient pressure (hPa),Sample flow (lpm),Bypass flow (lpm),Sample temperature (°C),Ambient temperature (°C),ASC tube jacket temperature (°C),LED temperature (°C),Box temperature (°C),Sample RH (%),Span deviation,Mass concentration (μg/m³),Mass concentration (μg/m³),Mass concentration (μg/m³)
DateTimeUTC,F1_M11,P_M11,Q1_M11,Q2_M11,T1_M11,T2_M11,T3_M11,T4_M11,T5_M11,U1_M11,ZSPAN_M11,X2_M11,X0_M11,X1_M11
2023-05-30 11:00:00,,0829.7,4.99,0.00,29.4,27.6,00.0,37.8,30.9,20.6,0000.0,0004.28,0009.55,0003.38
2023-05-30 11:01:00,,0829.7,4.99,0.00,29.4,27.6,00.0,37.8,30.9,20.4,0000.0,0004.29,0009.82,0003.38
2023-05-30 11:02:00,,0829.6,4.99,0.00,29.4,27.6,00.0,37.8,30.9,20.5,0000.0,0004.27,0009.68,0003.38
2023-05-30 11:03:00,,0829.7,5.01,0.00,29.4,27.5,00.0,37.8,30.9,20.5,0000.0,0004.28,0009.29,0003.38
2023-05-30 11:04:00,,0829.7,5.01,0.00,29.3,27.5,00.0,37.8,30.9,20.6,0000.0,0004.28,0009.11,0003.39
2023-05-30 11:05:00,,0829.7,4.99,0.00,29.3,27.5,00.0,37.8,30.9,20.6,0000.0,0004.28,0009.09,0003.39
2023-05-30 11:06:00,,0829.7,4.99,0.00,29.3,27.5,00.0,37.7,30.9,20.5,0000.0,0004.29,0009.12,0003.39
2023-05-30 11:07:00,,0829.7,5.00,0.00,29.3,27.6,00.0,37.7,30.9,20.6,0000.0,0004.28,0009.12,0003.39
2023-05-30 11:08:00,,0829.7,5.00,0.00,29.3,27.6,00.0,37.7,30.9,20.6,0000.0,0004.28,0008.77,0003.39
2023-05-30 11:09:00,,0829.7,5.00,0.00,29.3,27.6,00.0,37.7,30.9,20.6,0000.0,0004.26,0008.69,0003.39
2023-05-30 11:10:00,,0829.7,5.00,0.00,29.3,27.5,00.0,37.7,30.9,20.6,0000.0,0004.26,0008.65,0003.39
2023-05-30 11:11:00,,0829.7,5.00,0.00,29.3,27.5,00.0,37.7,30.9,20.5,0000.0,0004.27,0008.66,0003.39
2023-05-30 11:12:00,,0829.7,5.00,0.00,29.3,27.5,00.0,37.7,30.9,20.4,0000.0,0004.28,0008.61,0003.40
2023-05-30 11:13:00,,0829.7,5.01,0.00,29.3,27.5,00.0,37.7,30.9,20.3,0000.0,0004.30,0008.96,0003.41
2023-05-30 11:14:00,,0829.7,5.00,0.00,29.3,27.5,00.0,37.7,30.9,20.3,0000.0,0004.32,0009.38,0003.42
2023-05-30 11:15:00,,0829.7,5.00,0.00,29.3,27.5,00.0,37.7,30.8,20.3,0000.0,0004.29,0009.30,0003.43
2023-05-30 11:16:00,,0829.7,5.00,0.00,29.3,27.5,00.0,37.7,30.8,20.4,0000.0,0004.26,0009.66,0003.42
2023-05-30 11:17:00,,0829.8,5.00,0.00,29.3,27.5,00.0,37.7,30.8,20.5,0000.0,0004.27,0010.15,0003.40
2023-05-30 11:18:00,,0829.8,5.01,0.00,29.3,27.5,00.0,37.7,30.8,20.4,0000.0,0004.25,0010.07,0003.39
2023-05-30 11:19:00,,0829.8,5.00,0.00,29.3,27.5,00.0,37.7,30.8,20.4,0000.0,0004.22,0009.84,0003.39
2023-05-30 11:20:00,,0829.8,4.99,0.00,29.3,27.5,00.0,37.7,30.8,20.3,0000.0,0004.21,0009.91,0003.40
2023-05-30 11:21:00,,0829.8,5.00,0.00,29.3,27.5,00.0,37.7,30.8,20.4,0000.0,0004.27,0010.49,0003.40
2023-05-30 11:22:00,,0829.8,4.99,0.00,29.3,27.5,00.0,37.7,30.8,20.4,0000.0,0004.25,0011.00,0003.39
2023-05-30 11:23:00,,0829.8,4.99,0.00,29.3,27.5,00.0,37.7,30.8,20.4,0000.0,0004.19,0010.67,0003.40
2023-05-30 11:24:00,,0829.8,5.00,0.00,29.3,27.5,00.0,37.7,30.8,20.5,0000.0,0004.19,0010.47,0003.38
2023-05-30 11:25:00,,0829.8,5.01,0.00,29.3,27.5,00.0,37.7,30.8,20.4,0000.0,0004.18,0010.00,0003.37
2023-05-30 11:26:00,,0829.8,5.00,0.00,29.2,27.5,00.0,37.7,30.8,20.4,0000.0,0004.17,0009.91,0003.37
2023-05-30 11:27:00,,0829.9,5.01,0.00,29.2,27.5,00.0,37.6,30.8,20.4,0000.0,0004.14,0009.44,0003.36
2023-05-30 11:28:00,,0829.9,5.01,0.00,29.2,27.5,00.0,37.6,30.8,20.4,0000.0,0004.10,0008.81,0003.38
2023-05-30 11:29:00,,0830.0,5.01,0.00,29.2,27.5,00.0,37.6,30.8,20.4,0000.0,0004.09,0008.77,0003.39
2023-05-30 11:30:00,,0830.0,5.00,0.00,29.2,27.5,00.0,37.6,30.8,20.5,0000.0,0004.12,0008.92,0003.40
2023-05-30 11:31:00,,0830.0,5.00,0.00,29.2,27.5,00.0,37.6,30.8,21.1,0000.0,0004.17,0009.46,0003.40
2023-05-30 11:32:00,,0830.1,5.00,0.00,29.2,27.5,00.0,37.6,30.8,21.6,0000.0,0004.13,0009.47,0003.41
2023-05-30 11:33:00,,0830.0,5.00,0.00,29.3,27.5,00.0,37.6,30.8,22.0,0000.0,0004.08,0009.55,0003.43
2023-05-30 11:34:00,,0830.0,5.00,0.00,29.3,27.6,00.0,37.6,30.8,22.1,0000.0,0004.11,0009.71,0003.43
2023-05-30 11:35:00,,0830.0,4.99,0.00,29.3,27.6,00.0,37.6,30.9,22.0,0000.0,0004.16,0009.81,0003.46
2023-05-30 11:36:00,,0830.0,5.00,0.00,29.3,27.6,00.0,37.6,30.9,22.0,0000.0,0004.21,0009.73,0003.49
2023-05-30 11:37:00,,0830.1,5.00,0.00,29.3,27.6,00.0,37.6,30.9,21.6,0000.0,0004.38,0010.35,0003.52
2023-05-30 11:38:00,,0830.1,5.00,0.00,29.3,27.6,00.0,37.6,30.9,21.5,0000.0,0004.55,0012.47,0003.56
2023-05-30 11:39:00,,0830.1,5.00,0.00,29.3,27.6,00.0,37.6,30.9,21.6,0000.0,0004.66,0013.83,0003.59
2023-05-30 11:40:00,,0830.1,5.01,0.00,29.3,27.6,00.0,37.6,30.9,21.5,0000.0,0004.78,0015.16,0003.62
2023-05-30 11:41:00,,0830.1,5.01,0.00,29.3,27.6,00.0,37.6,30.9,21.6,0000.0,0004.85,0015.81,0003.65
2023-05-30 11:42:00,,0830.1,5.00,0.00,29.3,27.6,00.0,37.6,30.9,21.9,0000.0,0004.84,0016.15,0003.68
2023-05-30 11:43:00,,0830.1,5.00,0.00,29.3,27.6,00.0,37.6,30.9,22.1,0000.0,0004.88,0016.16,0003.69
2023-05-30 11:44:00,,0830.1,5.00,0.00,29.3,27.6,00.0,37.6,30.9,22.3,0000.0,0005.01,0015.59,0003.72
2023-05-30 11:45:00,,0830.1,5.00,0.00,29.3,27.6,00.0,37.6,30.9,22.3,0000.0,0005.06,0015.51,0003.74
2023-05-30 11:46:00,,0830.1,5.01,0.00,29.3,27.6,00.0,37.7,30.9,22.3,0000.0,0005.08,0015.45,0003.76
2023-05-30 11:47:00,,0830.1,5.00,0.00,29.3,27.6,00.0,37.7,30.9,22.3,0000.0,0005.07,0015.75,0003.76
2023-05-30 11:48:00,,0830.1,5.00,0.00,29.3,27.6,00.0,37.7,30.9,22.4,0000.0,0004.96,0015.50,0003.76
2023-05-30 11:49:00,,0830.1,5.00,0.00,29.3,27.6,00.0,37.7,30.9,22.5,0000.0,0004.84,0013.75,0003.76
2023-05-30 11:50:00,,0830.1,5.00,0.00,29.3,27.6,00.0,37.7,30.9,22.5,0000.0,0004.78,0013.19,0003.76
2023-05-30 11:51:00,,0830.1,5.00,0.00,29.3,27.6,00.0,37.7,30.9,22.5,0000.0,0004.72,0012.14,0003.76
2023-05-30 11:52:00,,0830.1,5.00,0.00,29.3,27.6,00.0,37.7,30.9,22.5,0000.0,0004.70,0011.49,0003.76
2023-05-30 11:53:00,,0830.1,4.99,0.00,29.3,27.6,00.0,37.7,30.9,22.4,0000.0,0004.76,0010.93,0003.78
2023-05-30 11:54:00,,0830.1,5.00,0.00,29.3,27.6,00.0,37.7,30.9,22.3,0000.0,0004.76,0010.55,0003.78
2023-05-30 11:55:00,,0830.1,4.99,0.00,29.3,27.6,00.0,37.7,30.9,22.3,0000.0,0004.72,0010.45,0003.78
2023-05-30 11:56:00,,0830.1,4.99,0.00,29.3,27.6,00.0,37.7,30.9,22.2,0000.0,0004.72,0011.02,0003.78
2023-05-30 11:57:00,,0830.1,5.01,0.00,29.3,27.6,00.0,37.7,30.9,21.9,0000.0,0004.67,0010.89,0003.78
2023-05-30 11:58:00,,0830.1,5.00,0.00,29.3,27.6,00.0,37.7,30.9,21.7,0000.0,0004.67,0010.57,0003.78
2023-05-30 11:59:00,,0830.1,5.01,0.00,29.3,27.6,00.0,37.7,30.9,21.8,0000.0,0004.68,0010.48,0003.78
